Location: Newark
(43.4306°N, 0.3089°E)
Time: 07:18:24
(UTC+00:00)

A-11 Canister half - Pass Details

Date: 28 August 2019
Orbit: 1514 x 1686 km, 47.2° (Epoch: 15 September)

Event Time Altitude Azimuth Distance (km) Brightness Sun altitude
Rises 19:51:50 0° 282° (WNW) 4,708 13.2 -12.8°
Reaches altitude 10° 19:54:53 10° 284° (WNW) 3,744 12.4 -13.3°
Maximum altitude 20:04:25 74° 10° (N) 1,651 9.2 -14.8°
Enters shadow 20:12:47 16° 94° (E) 3,403 10.3 -16.1°
